Year,Month,Day,Hour,Minute,Value (Times are PST for temperature in C)
2019,03,30,00,00,8.70
2019,03,30,00,01,8.70
2019,03,30,00,02,8.70
2019,03,30,00,03,8.70
2019,03,30,00,04,8.70
2019,03,30,00,05,8.60
2019,03,30,00,06,8.60
2019,03,30,00,07,8.60
2019,03,30,00,08,8.60
2019,03,30,00,09,8.60
2019,03,30,00,10,8.60
2019,03,30,00,11,8.60
2019,03,30,00,12,8.60
2019,03,30,00,13,8.50
2019,03,30,00,14,8.50
2019,03,30,00,15,8.50
2019,03,30,00,16,8.50
2019,03,30,00,17,8.40
2019,03,30,00,18,8.40
2019,03,30,00,19,8.40
2019,03,30,00,20,8.40
2019,03,30,00,21,8.40
2019,03,30,00,22,8.30
2019,03,30,00,23,8.30
2019,03,30,00,24,8.30
2019,03,30,00,25,8.30
2019,03,30,00,26,8.20
2019,03,30,00,27,8.20
2019,03,30,00,28,8.20
2019,03,30,00,29,8.20
2019,03,30,00,30,8.10
2019,03,30,00,31,8.10
2019,03,30,00,32,8.10
2019,03,30,00,33,8.10
2019,03,30,00,34,8.10
2019,03,30,00,35,8.00
2019,03,30,00,36,8.00
2019,03,30,00,37,8.00
2019,03,30,00,38,7.90
2019,03,30,00,39,7.90
2019,03,30,00,40,7.90
2019,03,30,00,41,7.90
2019,03,30,00,42,7.80
2019,03,30,00,43,7.80
2019,03,30,00,44,7.80
2019,03,30,00,45,7.70
2019,03,30,00,46,7.70
2019,03,30,00,47,7.70
2019,03,30,00,48,7.70
2019,03,30,00,49,7.60
2019,03,30,00,50,7.60
2019,03,30,00,51,7.60
2019,03,30,00,52,7.60
2019,03,30,00,53,7.60
2019,03,30,00,54,7.50
2019,03,30,00,55,7.50
2019,03,30,00,56,7.50
2019,03,30,00,57,7.50
2019,03,30,00,58,7.50
2019,03,30,00,59,7.50
2019,03,30,01,00,7.50
2019,03,30,01,01,7.50
2019,03,30,01,02,7.50
2019,03,30,01,03,7.50
2019,03,30,01,04,7.50
2019,03,30,01,05,7.50
2019,03,30,01,06,7.50
2019,03,30,01,07,7.50
2019,03,30,01,08,7.40
2019,03,30,01,09,7.40
2019,03,30,01,10,7.40
2019,03,30,01,11,7.40
2019,03,30,01,12,7.40
2019,03,30,01,13,7.40
2019,03,30,01,14,7.40
2019,03,30,01,15,7.40
2019,03,30,01,16,7.40
2019,03,30,01,17,7.40
2019,03,30,01,18,7.40
2019,03,30,01,19,7.50
2019,03,30,01,20,7.50
2019,03,30,01,21,7.50
2019,03,30,01,22,7.40
2019,03,30,01,23,7.50
2019,03,30,01,24,7.40
2019,03,30,01,25,7.40
2019,03,30,01,26,7.50
2019,03,30,01,27,7.40
2019,03,30,01,28,7.40
2019,03,30,01,29,7.40
2019,03,30,01,30,7.40
2019,03,30,01,31,7.30
2019,03,30,01,32,7.30
2019,03,30,01,33,7.30
2019,03,30,01,34,7.20
2019,03,30,01,35,7.20
2019,03,30,01,36,7.20
2019,03,30,01,37,7.20
2019,03,30,01,38,7.20
2019,03,30,01,39,7.20
2019,03,30,01,40,7.20
2019,03,30,01,41,7.10
2019,03,30,01,42,7.10
2019,03,30,01,43,7.10
2019,03,30,01,44,7.10
2019,03,30,01,45,7.10
2019,03,30,01,46,7.10
2019,03,30,01,47,7.10
2019,03,30,01,48,7.10
2019,03,30,01,49,7.10
2019,03,30,01,50,7.00
2019,03,30,01,51,7.00
2019,03,30,01,52,7.00
2019,03,30,01,53,7.00
2019,03,30,01,54,6.90
2019,03,30,01,55,6.90
2019,03,30,01,56,6.90
2019,03,30,01,57,6.90
2019,03,30,01,58,6.90
2019,03,30,01,59,6.90
2019,03,30,02,00,6.90
2019,03,30,02,01,6.90
2019,03,30,02,02,6.90
2019,03,30,02,03,6.90
2019,03,30,02,04,6.90
2019,03,30,02,05,6.90
2019,03,30,02,06,6.90
2019,03,30,02,07,6.80
2019,03,30,02,08,6.80
2019,03,30,02,09,6.80
2019,03,30,02,10,6.80
2019,03,30,02,11,6.70
2019,03,30,02,12,6.70
2019,03,30,02,13,6.70
2019,03,30,02,14,6.70
2019,03,30,02,15,6.70
2019,03,30,02,16,6.70
2019,03,30,02,17,6.70
2019,03,30,02,18,6.70
2019,03,30,02,19,6.60
2019,03,30,02,20,6.60
2019,03,30,02,21,6.60
2019,03,30,02,22,6.60
2019,03,30,02,23,6.60
2019,03,30,02,24,6.60
2019,03,30,02,25,6.50
2019,03,30,02,26,6.50
2019,03,30,02,27,6.50
2019,03,30,02,28,6.50
2019,03,30,02,29,6.50
2019,03,30,02,30,6.50
2019,03,30,02,31,6.50
2019,03,30,02,32,6.60
2019,03,30,02,33,6.60
2019,03,30,02,34,6.60
2019,03,30,02,35,6.60
2019,03,30,02,36,6.60
2019,03,30,02,37,6.60
2019,03,30,02,38,6.60
2019,03,30,02,39,6.60
2019,03,30,02,40,6.60
2019,03,30,02,41,6.60
2019,03,30,02,42,6.60
2019,03,30,02,43,6.60
2019,03,30,02,44,6.60
2019,03,30,02,45,6.60
2019,03,30,02,46,6.60
2019,03,30,02,47,6.60
2019,03,30,02,48,6.60
2019,03,30,02,49,6.60
2019,03,30,02,50,6.60
2019,03,30,02,51,6.60
2019,03,30,02,52,6.60
2019,03,30,02,53,6.60
2019,03,30,02,54,6.60
2019,03,30,02,55,6.50
2019,03,30,02,56,6.50
2019,03,30,02,57,6.50
2019,03,30,02,58,6.50
2019,03,30,02,59,6.50
2019,03,30,03,00,6.50
2019,03,30,03,01,6.50
2019,03,30,03,02,6.50
2019,03,30,03,03,6.40
2019,03,30,03,04,6.40
2019,03,30,03,05,6.40
2019,03,30,03,06,6.40
2019,03,30,03,07,6.40
2019,03,30,03,08,6.40
2019,03,30,03,09,6.40
2019,03,30,03,10,6.40
2019,03,30,03,11,6.40
2019,03,30,03,12,6.40
2019,03,30,03,13,6.40
2019,03,30,03,14,6.40
2019,03,30,03,15,6.40
2019,03,30,03,16,6.40
2019,03,30,03,17,6.40
2019,03,30,03,18,6.40
2019,03,30,03,19,6.40
2019,03,30,03,20,6.40
2019,03,30,03,21,6.40
2019,03,30,03,22,6.30
2019,03,30,03,23,6.30
2019,03,30,03,24,6.30
2019,03,30,03,25,6.30
2019,03,30,03,26,6.30
2019,03,30,03,27,6.30
2019,03,30,03,28,6.30
2019,03,30,03,29,6.30
2019,03,30,03,30,6.30
2019,03,30,03,31,6.30
2019,03,30,03,32,6.30
2019,03,30,03,33,6.30
2019,03,30,03,34,6.20
2019,03,30,03,35,6.20
2019,03,30,03,36,6.20
2019,03,30,03,37,6.20
2019,03,30,03,38,6.20
2019,03,30,03,39,6.20
2019,03,30,03,40,6.20
2019,03,30,03,41,6.20
2019,03,30,03,42,6.20
2019,03,30,03,43,6.10
2019,03,30,03,44,6.10
2019,03,30,03,45,6.10
2019,03,30,03,46,6.10
2019,03,30,03,47,6.10
2019,03,30,03,48,6.10
2019,03,30,03,49,6.00
2019,03,30,03,50,6.00
2019,03,30,03,51,6.00
2019,03,30,03,52,6.00
2019,03,30,03,53,5.90
2019,03,30,03,54,5.90
2019,03,30,03,55,5.90
2019,03,30,03,56,5.90
2019,03,30,03,57,5.90
2019,03,30,03,58,5.90
2019,03,30,03,59,5.90
2019,03,30,04,00,5.90
2019,03,30,04,01,5.90
2019,03,30,04,02,5.90
2019,03,30,04,03,5.90
2019,03,30,04,04,5.90
2019,03,30,04,05,5.80
2019,03,30,04,06,5.80
2019,03,30,04,07,5.80
2019,03,30,04,08,5.80
2019,03,30,04,09,5.80
2019,03,30,04,10,5.80
2019,03,30,04,11,5.80
2019,03,30,04,12,5.80
2019,03,30,04,13,5.80
2019,03,30,04,14,5.80
2019,03,30,04,15,5.80
2019,03,30,04,16,5.80
2019,03,30,04,17,5.80
2019,03,30,04,18,5.80
2019,03,30,04,19,5.80
2019,03,30,04,20,5.80
2019,03,30,04,21,5.80
2019,03,30,04,22,5.80
2019,03,30,04,23,5.80
2019,03,30,04,24,5.80
2019,03,30,04,25,5.80
2019,03,30,04,26,5.80
2019,03,30,04,27,5.70
2019,03,30,04,28,5.70
2019,03,30,04,29,5.70
2019,03,30,04,30,5.70
2019,03,30,04,31,5.70
2019,03,30,04,32,5.70
2019,03,30,04,33,5.70
2019,03,30,04,34,5.70
2019,03,30,04,35,5.70
2019,03,30,04,36,5.70
2019,03,30,04,37,5.70
2019,03,30,04,38,5.70
2019,03,30,04,39,5.80
2019,03,30,04,40,5.70
2019,03,30,04,41,5.80
2019,03,30,04,42,5.80
2019,03,30,04,43,5.70
2019,03,30,04,44,5.70
2019,03,30,04,45,5.70
2019,03,30,04,46,5.70
2019,03,30,04,47,5.70
2019,03,30,04,48,5.70
2019,03,30,04,49,5.60
2019,03,30,04,50,5.60
2019,03,30,04,51,5.60
2019,03,30,04,52,5.60
2019,03,30,04,53,5.60
2019,03,30,04,54,5.60
2019,03,30,04,55,5.60
2019,03,30,04,56,5.60
2019,03,30,04,57,5.60
2019,03,30,04,58,5.60
2019,03,30,04,59,5.60
2019,03,30,05,00,5.60
2019,03,30,05,01,5.60
2019,03,30,05,02,5.60
2019,03,30,05,03,5.60
2019,03,30,05,04,5.60
2019,03,30,05,05,5.60
2019,03,30,05,06,5.60
2019,03,30,05,07,5.60
2019,03,30,05,08,5.60
2019,03,30,05,09,5.60
2019,03,30,05,10,5.60
2019,03,30,05,11,5.60
2019,03,30,05,12,5.60
2019,03,30,05,13,5.60
2019,03,30,05,14,5.60
2019,03,30,05,15,5.60
2019,03,30,05,16,5.50
2019,03,30,05,17,5.50
2019,03,30,05,18,5.50
2019,03,30,05,19,5.50
2019,03,30,05,20,5.50
2019,03,30,05,21,5.40
2019,03,30,05,22,5.40
2019,03,30,05,23,5.40
2019,03,30,05,24,5.40
2019,03,30,05,25,5.40
2019,03,30,05,26,5.40
2019,03,30,05,27,5.40
2019,03,30,05,28,5.40
2019,03,30,05,29,5.40
2019,03,30,05,30,5.40
2019,03,30,05,31,5.40
2019,03,30,05,32,5.40
2019,03,30,05,33,5.40
2019,03,30,05,34,5.40
2019,03,30,05,35,5.40
2019,03,30,05,36,5.40
2019,03,30,05,37,5.40
2019,03,30,05,38,5.40
2019,03,30,07,54,4.90
2019,03,30,07,55,4.90
2019,03,30,07,56,4.90
2019,03,30,07,57,5.00
2019,03,30,07,58,5.00
2019,03,30,07,59,5.00
2019,03,30,08,00,5.10
2019,03,30,08,01,5.10
2019,03,30,08,02,5.10
2019,03,30,08,03,5.20
2019,03,30,08,04,5.20
2019,03,30,08,05,5.20
2019,03,30,08,06,5.30
2019,03,30,08,07,5.30
2019,03,30,08,08,5.40
2019,03,30,08,09,5.40
2019,03,30,08,10,5.40
2019,03,30,08,11,5.40
2019,03,30,08,12,5.50
2019,03,30,08,13,5.50
2019,03,30,08,14,5.60
2019,03,30,08,15,5.60
2019,03,30,08,16,5.60
2019,03,30,08,17,5.60
2019,03,30,08,18,5.70
2019,03,30,08,19,5.70
2019,03,30,08,20,5.70
2019,03,30,08,21,5.70
2019,03,30,08,22,5.80
2019,03,30,08,23,5.80
2019,03,30,08,24,5.80
2019,03,30,08,25,5.90
2019,03,30,08,26,5.90
2019,03,30,08,27,5.90
2019,03,30,08,28,6.00
2019,03,30,08,29,6.00
2019,03,30,08,30,6.10
2019,03,30,08,31,6.20
2019,03,30,08,32,6.20
2019,03,30,08,33,6.30
2019,03,30,08,34,6.40
2019,03,30,08,35,6.50
2019,03,30,08,36,6.70
2019,03,30,08,37,6.80
2019,03,30,08,38,6.90
2019,03,30,08,39,7.00
2019,03,30,08,40,7.10
2019,03,30,08,41,7.20
2019,03,30,08,42,7.30
2019,03,30,08,43,7.30
2019,03,30,08,44,7.40
2019,03,30,08,45,7.50
2019,03,30,08,46,7.60
2019,03,30,08,47,7.60
2019,03,30,08,48,7.70
2019,03,30,08,49,7.70
2019,03,30,08,50,7.80
2019,03,30,08,51,7.80
2019,03,30,08,52,7.90
2019,03,30,08,53,8.00
2019,03,30,08,54,8.00
2019,03,30,08,55,8.10
2019,03,30,08,56,8.10
2019,03,30,08,57,8.20
2019,03,30,08,58,8.20
2019,03,30,08,59,8.20
2019,03,30,09,00,8.20
2019,03,30,09,01,8.20
2019,03,30,09,02,8.20
2019,03,30,09,03,8.20
2019,03,30,09,04,8.20
2019,03,30,09,05,8.30
2019,03,30,09,06,8.30
2019,03,30,09,07,8.30
2019,03,30,09,08,8.30
2019,03,30,09,09,8.40
2019,03,30,09,10,8.40
2019,03,30,09,11,8.40
2019,03,30,09,12,8.40
2019,03,30,09,13,8.50
2019,03,30,09,14,8.50
2019,03,30,09,15,8.60
2019,03,30,09,16,8.60
2019,03,30,09,17,8.60
2019,03,30,09,18,8.60
2019,03,30,09,19,8.70
2019,03,30,09,20,8.70
2019,03,30,09,21,8.80
2019,03,30,09,22,8.80
2019,03,30,09,23,8.80
2019,03,30,09,24,8.90
2019,03,30,09,25,8.90
2019,03,30,09,26,9.00
2019,03,30,09,27,9.00
2019,03,30,09,28,9.10
2019,03,30,09,29,9.10
2019,03,30,09,30,9.10
2019,03,30,09,31,9.10
2019,03,30,09,32,9.20
2019,03,30,09,33,9.20
2019,03,30,09,34,9.20
2019,03,30,09,35,9.30
2019,03,30,09,36,9.30
2019,03,30,09,37,9.30
2019,03,30,09,38,9.40
2019,03,30,09,39,9.40
2019,03,30,09,40,9.40
2019,03,30,09,41,9.50
2019,03,30,09,42,9.50
2019,03,30,09,43,9.60
2019,03,30,09,44,9.60
2019,03,30,09,45,9.60
2019,03,30,09,46,9.70
2019,03,30,09,47,9.70
2019,03,30,09,48,9.70
2019,03,30,09,49,9.80
2019,03,30,09,50,9.80
2019,03,30,09,51,9.80
2019,03,30,09,52,9.80
2019,03,30,09,53,9.90
2019,03,30,09,54,9.90
2019,03,30,09,55,9.90
2019,03,30,09,56,10.00
2019,03,30,09,57,10.10
2019,03,30,09,58,10.10
2019,03,30,09,59,10.20
2019,03,30,10,00,10.20
2019,03,30,10,01,10.30
2019,03,30,10,02,10.30
2019,03,30,10,03,10.30
2019,03,30,10,04,10.40
2019,03,30,10,05,10.40
2019,03,30,10,06,10.40
2019,03,30,10,07,10.40
2019,03,30,10,08,10.40
2019,03,30,10,09,10.50
2019,03,30,10,10,10.50
2019,03,30,10,11,10.50
2019,03,30,10,12,10.50
2019,03,30,10,13,10.50
2019,03,30,10,14,10.60
2019,03,30,10,15,10.60
2019,03,30,10,16,10.60
2019,03,30,10,17,10.60
2019,03,30,10,18,10.60
2019,03,30,10,19,10.70
2019,03,30,10,20,10.70
2019,03,30,10,21,10.70
2019,03,30,10,22,10.70
2019,03,30,10,23,10.70
2019,03,30,10,24,10.60
2019,03,30,10,25,10.60
2019,03,30,10,26,10.50
2019,03,30,10,27,10.40
2019,03,30,10,28,10.40
2019,03,30,10,29,10.30
2019,03,30,10,30,10.30
2019,03,30,10,31,10.20
2019,03,30,10,32,10.20
2019,03,30,10,33,10.10
2019,03,30,10,34,10.10
2019,03,30,10,35,10.10
2019,03,30,10,36,10.10
2019,03,30,10,37,10.00
2019,03,30,10,38,10.00
2019,03,30,10,39,10.00
2019,03,30,10,40,10.00
2019,03,30,10,41,10.00
2019,03,30,10,42,10.00
2019,03,30,10,43,10.00
2019,03,30,10,44,10.00
2019,03,30,10,45,10.00
2019,03,30,10,46,10.00
2019,03,30,10,47,10.00
2019,03,30,10,48,10.00
2019,03,30,10,49,10.00
2019,03,30,10,50,10.00
2019,03,30,10,51,10.00
2019,03,30,10,52,10.00
2019,03,30,10,53,10.00
2019,03,30,10,54,10.00
2019,03,30,10,55,10.00
2019,03,30,10,56,10.00
2019,03,30,10,57,10.00
2019,03,30,10,58,10.10
2019,03,30,10,59,10.10
2019,03,30,11,00,10.10
2019,03,30,11,01,10.10
2019,03,30,11,02,10.20
2019,03,30,11,03,10.20
2019,03,30,11,04,10.30
2019,03,30,11,05,10.30
2019,03,30,11,06,10.30
2019,03,30,11,07,10.30
2019,03,30,11,08,10.40
2019,03,30,11,09,10.40
2019,03,30,11,10,10.40
2019,03,30,11,11,10.40
2019,03,30,11,12,10.40
2019,03,30,11,13,10.40
2019,03,30,11,14,10.40
2019,03,30,11,15,10.40
2019,03,30,11,16,10.40
2019,03,30,11,17,10.40
2019,03,30,11,18,10.40
2019,03,30,11,19,10.30
2019,03,30,11,20,10.30
2019,03,30,11,21,10.30
2019,03,30,11,22,10.40
2019,03,30,11,23,10.40
2019,03,30,11,24,10.40
2019,03,30,11,25,10.50
2019,03,30,11,26,10.50
2019,03,30,11,27,10.50
2019,03,30,11,28,10.50
2019,03,30,11,29,10.50
2019,03,30,11,30,10.50
2019,03,30,11,31,10.50
2019,03,30,11,32,10.50
2019,03,30,11,33,10.40
2019,03,30,11,34,10.40
2019,03,30,11,35,10.40
2019,03,30,11,36,10.40
2019,03,30,11,37,10.30
2019,03,30,11,38,10.30
2019,03,30,11,39,10.30
2019,03,30,11,40,10.20
2019,03,30,11,41,10.20
2019,03,30,11,42,10.10
2019,03,30,11,43,10.00
2019,03,30,11,44,9.90
2019,03,30,11,45,9.80
2019,03,30,11,46,9.80
2019,03,30,11,47,9.70
2019,03,30,11,48,9.60
2019,03,30,11,49,9.50
2019,03,30,11,50,9.40
2019,03,30,11,51,9.40
2019,03,30,11,52,9.30
2019,03,30,11,53,9.20
2019,03,30,11,54,9.20
2019,03,30,11,55,9.20
2019,03,30,11,56,9.20
2019,03,30,11,57,9.10
2019,03,30,11,58,9.10
2019,03,30,11,59,9.00
2019,03,30,12,00,9.00
2019,03,30,12,01,9.00
2019,03,30,12,02,9.00
2019,03,30,12,03,8.90
2019,03,30,12,04,8.90
2019,03,30,12,05,8.90
2019,03,30,12,06,8.90
2019,03,30,12,07,8.90
2019,03,30,12,08,8.90
2019,03,30,12,09,8.90
2019,03,30,12,10,8.90
2019,03,30,12,11,8.90
2019,03,30,12,12,8.90
2019,03,30,12,13,8.80
2019,03,30,12,14,8.80
2019,03,30,12,15,8.80
2019,03,30,12,16,8.80
2019,03,30,12,17,8.80
2019,03,30,12,18,8.80
2019,03,30,12,19,8.80
2019,03,30,12,20,8.80
2019,03,30,12,21,8.90
2019,03,30,12,22,8.90
2019,03,30,12,23,8.90
2019,03,30,12,24,8.90
2019,03,30,12,25,9.00
2019,03,30,12,26,9.00
2019,03,30,12,27,9.00
2019,03,30,12,28,9.00
2019,03,30,12,29,9.10
2019,03,30,12,30,9.10
2019,03,30,12,31,9.10
2019,03,30,12,32,9.20
2019,03,30,12,33,9.10
2019,03,30,12,34,9.10
2019,03,30,12,35,9.10
2019,03,30,12,36,9.10
2019,03,30,12,37,9.10
2019,03,30,12,38,9.10
2019,03,30,12,39,9.10
2019,03,30,12,40,9.20
2019,03,30,12,41,9.20
2019,03,30,12,42,9.20
2019,03,30,12,43,9.20
2019,03,30,12,44,9.30
2019,03,30,12,45,9.30
2019,03,30,12,46,9.30
2019,03,30,12,47,9.30
2019,03,30,12,48,9.40
2019,03,30,12,49,9.40
2019,03,30,12,50,9.40
2019,03,30,12,51,9.50
2019,03,30,12,52,9.50
2019,03,30,12,53,9.60
2019,03,30,12,54,9.60
2019,03,30,12,55,9.60
2019,03,30,12,56,9.60
2019,03,30,12,57,9.70
2019,03,30,12,58,9.70
2019,03,30,12,59,9.70
2019,03,30,13,00,9.70
2019,03,30,13,01,9.70
2019,03,30,13,02,9.80
2019,03,30,13,03,9.80
2019,03,30,13,04,9.80
2019,03,30,13,05,9.90
2019,03,30,13,06,9.90
2019,03,30,13,07,9.90
2019,03,30,13,08,9.90
2019,03,30,13,09,9.90
2019,03,30,13,10,9.90
2019,03,30,13,11,9.90
2019,03,30,13,12,9.90
2019,03,30,13,13,9.90
2019,03,30,13,14,10.00
2019,03,30,13,15,10.00
2019,03,30,13,16,10.00
2019,03,30,13,17,10.00
2019,03,30,13,18,10.00
2019,03,30,13,19,10.00
2019,03,30,13,20,10.00
2019,03,30,13,21,10.00
2019,03,30,13,22,10.00
2019,03,30,13,23,10.10
2019,03,30,13,24,10.10
2019,03,30,13,25,10.10
2019,03,30,13,26,10.10
2019,03,30,13,27,10.10
2019,03,30,13,28,10.20
2019,03,30,13,29,10.20
2019,03,30,13,30,10.20
2019,03,30,13,31,10.20
2019,03,30,13,32,10.20
2019,03,30,13,33,10.20
2019,03,30,13,34,10.20
2019,03,30,13,35,10.20
2019,03,30,13,36,10.20
2019,03,30,13,37,10.10
2019,03,30,13,38,10.10
2019,03,30,13,39,10.10
2019,03,30,13,40,10.10
2019,03,30,13,41,10.10
2019,03,30,13,42,10.10
2019,03,30,13,43,10.10
2019,03,30,13,44,10.10
2019,03,30,13,45,10.10
2019,03,30,13,46,10.10
2019,03,30,13,47,10.20
2019,03,30,13,48,10.20
2019,03,30,13,49,10.20
2019,03,30,13,50,10.20
2019,03,30,13,51,10.20
2019,03,30,13,52,10.20
2019,03,30,13,53,10.20
2019,03,30,13,54,10.20
2019,03,30,13,55,10.20
2019,03,30,13,56,10.20
2019,03,30,13,57,10.20
2019,03,30,13,58,10.20
2019,03,30,13,59,10.20
2019,03,30,14,00,10.20
2019,03,30,14,01,10.20
2019,03,30,14,02,10.20
2019,03,30,14,03,10.20
2019,03,30,14,04,10.20
2019,03,30,14,05,10.20
2019,03,30,14,06,10.30
2019,03,30,14,07,10.30
2019,03,30,14,08,10.30
2019,03,30,14,09,10.30
2019,03,30,14,10,10.30
2019,03,30,14,11,10.40
2019,03,30,14,12,10.40
2019,03,30,14,13,10.40
2019,03,30,14,14,10.40
2019,03,30,14,15,10.40
2019,03,30,14,16,10.40
2019,03,30,14,17,10.50
2019,03,30,14,18,10.50
2019,03,30,14,19,10.50
2019,03,30,14,20,10.60
2019,03,30,14,21,10.60
2019,03,30,14,22,10.60
2019,03,30,14,23,10.60
2019,03,30,14,24,10.60
2019,03,30,14,25,10.60
2019,03,30,14,26,10.60
2019,03,30,14,27,10.60
2019,03,30,14,28,10.60
2019,03,30,14,29,10.60
2019,03,30,14,30,10.70
2019,03,30,14,31,10.70
2019,03,30,14,32,10.70
2019,03,30,14,33,10.60
2019,03,30,14,34,10.60
2019,03,30,14,35,10.60
2019,03,30,14,36,10.70
2019,03,30,14,37,10.70
2019,03,30,14,38,10.70
2019,03,30,14,39,10.70
2019,03,30,14,40,10.70
2019,03,30,14,41,10.70
2019,03,30,14,42,10.80
2019,03,30,14,43,10.80
2019,03,30,14,44,10.80
2019,03,30,14,45,10.80
2019,03,30,14,46,10.90
2019,03,30,14,47,10.90
2019,03,30,14,48,10.90
2019,03,30,14,49,10.90
2019,03,30,14,50,11.00
2019,03,30,14,51,11.00
2019,03,30,14,52,11.00
2019,03,30,14,53,11.10
2019,03,30,14,54,11.10
2019,03,30,14,55,11.10
2019,03,30,14,56,11.20
2019,03,30,14,57,11.20
2019,03,30,14,58,11.20
2019,03,30,14,59,11.20
2019,03,30,15,00,11.30
2019,03,30,15,01,11.30
2019,03,30,15,02,11.30
2019,03,30,15,03,11.30
2019,03,30,15,04,11.30
2019,03,30,15,05,11.30
2019,03,30,15,06,11.30
2019,03,30,15,07,11.30
2019,03,30,15,08,11.30
2019,03,30,15,09,11.30
2019,03,30,15,10,11.30
2019,03,30,15,11,11.40
2019,03,30,15,12,11.40
2019,03,30,15,13,11.40
2019,03,30,15,14,11.40
2019,03,30,15,15,11.50
2019,03,30,15,16,11.50
2019,03,30,15,17,11.50
2019,03,30,15,18,11.50
2019,03,30,15,19,11.60
2019,03,30,15,20,11.60
2019,03,30,15,21,11.60
2019,03,30,15,22,11.70
2019,03,30,15,23,11.70
2019,03,30,15,24,11.70
2019,03,30,15,25,11.70
2019,03,30,15,26,11.70
2019,03,30,15,27,11.80
2019,03,30,15,28,11.80
2019,03,30,15,29,11.80
2019,03,30,15,30,11.80
2019,03,30,15,31,11.80
2019,03,30,15,32,11.90
2019,03,30,15,33,11.90
2019,03,30,15,34,11.90
2019,03,30,15,35,11.90
2019,03,30,15,36,11.90
2019,03,30,15,37,11.90
2019,03,30,15,38,11.90
2019,03,30,15,39,11.80
2019,03,30,15,40,11.80
2019,03,30,15,41,11.80
2019,03,30,15,42,11.80
2019,03,30,15,43,11.70
2019,03,30,15,44,11.70
2019,03,30,15,45,11.60
2019,03,30,15,46,11.60
2019,03,30,15,47,11.60
2019,03,30,15,48,11.60
2019,03,30,15,49,11.60
2019,03,30,15,50,11.60
2019,03,30,15,51,11.60
2019,03,30,15,52,11.60
2019,03,30,15,53,11.60
2019,03,30,15,54,11.60
2019,03,30,15,55,11.70
2019,03,30,15,56,11.70
2019,03,30,15,57,11.80
2019,03,30,15,58,11.80
2019,03,30,15,59,11.80
2019,03,30,16,00,11.80
2019,03,30,16,01,11.80
2019,03,30,16,02,11.80
2019,03,30,16,03,11.80
2019,03,30,16,04,11.80
2019,03,30,16,05,11.70
2019,03,30,16,06,11.70
2019,03,30,16,07,11.70
2019,03,30,16,08,11.70
2019,03,30,16,09,11.70
2019,03,30,16,10,11.70
2019,03,30,16,11,11.70
2019,03,30,16,12,11.70
2019,03,30,16,13,11.70
2019,03,30,16,14,11.70
2019,03,30,16,15,11.70
2019,03,30,16,16,11.70
2019,03,30,16,17,11.70
2019,03,30,16,18,11.70
2019,03,30,16,19,11.80
2019,03,30,16,20,11.80
2019,03,30,16,21,11.90
2019,03,30,16,22,11.90
2019,03,30,16,23,11.90
2019,03,30,16,24,11.90
2019,03,30,16,25,11.90
2019,03,30,16,26,11.90
2019,03,30,16,27,12.00
2019,03,30,16,28,12.00
2019,03,30,16,29,12.00
2019,03,30,16,30,12.00
2019,03,30,16,31,12.10
2019,03,30,16,32,12.10
2019,03,30,16,33,12.10
2019,03,30,16,34,12.10
2019,03,30,16,35,12.10
2019,03,30,16,36,12.10
2019,03,30,16,37,12.00
2019,03,30,16,38,12.00
2019,03,30,16,39,12.00
2019,03,30,16,40,12.00
2019,03,30,16,41,12.00
2019,03,30,16,42,11.90
2019,03,30,16,43,12.00
2019,03,30,16,44,12.00
2019,03,30,16,45,12.00
2019,03,30,16,46,12.10
2019,03,30,16,47,12.10
2019,03,30,16,48,12.10
2019,03,30,16,49,12.10
2019,03,30,16,50,12.10
2019,03,30,16,51,12.10
2019,03,30,16,52,12.10
2019,03,30,16,53,12.10
2019,03,30,16,54,12.10
2019,03,30,16,55,12.10
2019,03,30,16,56,12.10
2019,03,30,16,57,12.20
2019,03,30,16,58,12.20
2019,03,30,16,59,12.20
2019,03,30,17,00,12.30
2019,03,30,17,01,12.30
2019,03,30,17,02,12.30
2019,03,30,17,03,12.30
2019,03,30,17,04,12.30
2019,03,30,17,05,12.30
2019,03,30,17,06,12.30
2019,03,30,17,07,12.30
2019,03,30,17,08,12.30
2019,03,30,17,09,12.30
2019,03,30,17,10,12.30
2019,03,30,17,11,12.30
2019,03,30,17,12,12.30
2019,03,30,17,13,12.30
2019,03,30,17,14,12.30
2019,03,30,17,15,12.30
2019,03,30,17,16,12.30
2019,03,30,17,17,12.30
2019,03,30,17,18,12.40
2019,03,30,17,19,12.40
2019,03,30,17,20,12.40
2019,03,30,17,21,12.40
2019,03,30,17,22,12.40
2019,03,30,17,23,12.40
2019,03,30,17,24,12.40
2019,03,30,17,25,12.40
2019,03,30,17,26,12.40
2019,03,30,17,27,12.40
2019,03,30,17,28,12.40
2019,03,30,17,29,12.40
2019,03,30,17,30,12.40
2019,03,30,17,31,12.40
2019,03,30,17,32,12.40
2019,03,30,17,33,12.50
2019,03,30,17,34,12.50
2019,03,30,17,35,12.50
2019,03,30,17,36,12.50
2019,03,30,17,37,12.50
2019,03,30,17,38,12.60
2019,03,30,17,39,12.60
2019,03,30,17,40,12.60
2019,03,30,17,41,12.60
2019,03,30,17,42,12.60
2019,03,30,17,43,12.60
2019,03,30,17,44,12.60
2019,03,30,17,45,12.60
2019,03,30,17,46,12.70
2019,03,30,17,47,12.60
2019,03,30,17,48,12.60
2019,03,30,17,49,12.60
2019,03,30,17,50,12.60
2019,03,30,17,51,12.60
2019,03,30,17,52,12.60
2019,03,30,17,53,12.60
2019,03,30,17,54,12.60
2019,03,30,17,55,12.60
2019,03,30,17,56,12.60
2019,03,30,17,57,12.60
2019,03,30,17,58,12.70
2019,03,30,17,59,12.70
2019,03,30,18,00,12.70
2019,03,30,18,01,12.70
2019,03,30,18,02,12.70
2019,03,30,18,03,12.70
2019,03,30,18,04,12.70
2019,03,30,18,05,12.70
2019,03,30,18,06,12.70
2019,03,30,18,07,12.70
2019,03,30,18,08,12.70
2019,03,30,18,09,12.70
2019,03,30,18,10,12.70
2019,03,30,18,11,12.70
2019,03,30,18,12,12.70
2019,03,30,18,13,12.70
2019,03,30,18,14,12.70
2019,03,30,18,15,12.70
2019,03,30,18,16,12.70
2019,03,30,18,17,12.80
2019,03,30,18,18,12.80
2019,03,30,18,19,12.80
2019,03,30,18,20,12.80
2019,03,30,18,21,12.80
2019,03,30,18,22,12.80
2019,03,30,18,23,12.90
2019,03,30,18,24,12.90
2019,03,30,18,25,12.90
2019,03,30,18,26,12.90
2019,03,30,18,27,12.90
2019,03,30,18,28,12.90
2019,03,30,18,29,12.90
2019,03,30,18,30,12.90
2019,03,30,18,31,12.90
2019,03,30,18,32,12.90
2019,03,30,18,33,12.90
2019,03,30,18,34,12.90
2019,03,30,18,35,12.90
2019,03,30,18,36,12.90
2019,03,30,18,37,12.90
2019,03,30,18,38,12.90
2019,03,30,18,39,13.00
2019,03,30,18,40,13.00
2019,03,30,18,41,12.90
2019,03,30,18,42,13.00
2019,03,30,18,43,13.00
2019,03,30,18,44,13.00
2019,03,30,18,45,13.00
2019,03,30,18,46,13.00
2019,03,30,18,47,13.00
2019,03,30,18,48,13.00
2019,03,30,18,49,13.10
2019,03,30,18,50,13.10
2019,03,30,18,51,13.10
2019,03,30,18,52,13.10
2019,03,30,18,53,13.10
2019,03,30,18,54,13.10
2019,03,30,18,55,13.20
2019,03,30,18,56,13.20
2019,03,30,18,57,13.20
2019,03,30,18,58,13.20
2019,03,30,18,59,13.20
2019,03,30,19,00,13.20
2019,03,30,19,01,13.20
2019,03,30,19,02,13.20
2019,03,30,19,03,13.20
2019,03,30,19,04,13.10
2019,03,30,19,05,13.10
2019,03,30,19,06,13.10
2019,03,30,19,07,13.00
2019,03,30,19,08,12.90
2019,03,30,19,09,12.90
2019,03,30,19,10,12.80
2019,03,30,19,11,12.70
2019,03,30,19,12,12.60
2019,03,30,19,13,12.60
2019,03,30,19,14,12.50
2019,03,30,19,15,12.40
2019,03,30,19,16,12.30
2019,03,30,19,17,12.30
2019,03,30,19,18,12.30
2019,03,30,19,19,12.30
2019,03,30,19,20,12.20
2019,03,30,19,21,12.20
2019,03,30,19,22,12.20
2019,03,30,19,23,12.10
2019,03,30,19,24,12.10
2019,03,30,19,25,12.10
2019,03,30,19,26,12.10
2019,03,30,19,27,12.10
2019,03,30,19,28,12.10
2019,03,30,19,29,12.10
2019,03,30,19,30,12.10
2019,03,30,19,31,12.10
2019,03,30,19,32,12.10
2019,03,30,19,33,12.10
2019,03,30,19,34,12.10
2019,03,30,19,35,12.10
2019,03,30,19,36,12.10
2019,03,30,19,37,12.10
2019,03,30,19,38,12.10
2019,03,30,19,39,12.10
2019,03,30,19,40,12.10
2019,03,30,19,41,12.10
2019,03,30,19,42,12.10
2019,03,30,19,43,12.10
2019,03,30,19,44,12.10
2019,03,30,19,45,12.00
2019,03,30,19,46,12.00
2019,03,30,19,47,12.00
2019,03,30,19,48,12.00
2019,03,30,19,49,12.00
2019,03,30,19,50,12.00
2019,03,30,19,51,12.00
2019,03,30,19,52,12.00
2019,03,30,19,53,12.00
2019,03,30,19,54,12.00
2019,03,30,19,55,12.00
2019,03,30,19,56,12.00
2019,03,30,19,57,11.90
2019,03,30,19,58,12.00